Regional Weather Roundup
Issued by NWS

Home | Current Version | Previous Version | Text Only | Print | Product List | Glossary Off
Versions: 1 2 3 4 5 6 7 8 9 10 11 12 13 14 15 16 17 18 19 20 21 22 23 24 25 26 27 28 29 30 31 32 33 34 35 36 37 38 39 40 41 42 43 44 45 46 47 48 49 50

000
ASUS43 KMKX 201500
RWRWI

WISCONSIN REGIONAL WEATHER ROUNDUP
NATIONAL WEATHER SERVICE MILWAUKEE/SULLIVAN WI
1000 AM CDT SUN AUG 20 2017

NOTE: "FAIR" INDICATES FEW OR NO CLOUDS BELOW 12,000 FEET WITH NO
SIGNIFICANT WEATHER AND/OR OBSTRUCTIONS TO VISIBILITY.

WIZ001-002-006>008-014>016-023>028-201600-
NORTHWEST WISCONSIN

CITY           SKY/WX    TMP DP  RH WIND       PRES   REMARKS
SUPERIOR ARPT    N/A     72  66  81 SW9       29.84S
ASHLAND        MOSUNNY   75  65  70 S12       29.87F
HAYWARD        MOSUNNY   73  64  73 S12       29.91S
SIREN          MOSUNNY   72  64  75 SW9       29.89S
CUMBERLAND     SUNNY     68  61  77 S9        29.92F
RICE LAKE      SUNNY     69  64  84 S8        29.94S
CHETEK         SUNNY     70  65  85 S6        29.93R
LADYSMITH      CLOUDY    70  65  82 S8        29.96R
EAU CLAIRE     PTSUNNY   70  63  78 S10       29.94R
MENOMONIE      CLOUDY    69  65  88 S7        29.94R
NEW RICHMOND   SUNNY     72  62  71 SW9       29.92R
OSCEOLA        SUNNY     72  65  77 SW7       29.94R
$$

WIZ003>005-009-010-017-018-201600-
NORTH CENTRAL WISCONSIN

CITY           SKY/WX    TMP DP  RH WIND       PRES   REMARKS
MANITOWISH WTR SUNNY     70  66  89 S10G17    29.95F
ARBOR VITAE    MOSUNNY   72  65  78 SW9G16    29.97S
WOODRUFF       MOSUNNY   72  65  78 SW9G16    29.97S
RHINELANDER    CLOUDY    70  63  78 SW12      29.99S
EAGLE RIVER    CLOUDY    69  60  73 SW9G17    29.98R
LAND O LAKES   SUNNY     70  62  74 SW12      29.98S
PHILLIPS       SUNNY     68  64  86 S7        29.95F
TOMAHAWK         N/A     67  61  80 CALM      29.99S
MEDFORD        CLOUDY    68  63  83 S9        29.98R
MERRILL        CLOUDY    70  64  83 SW3       30.00R
$$

WIZ029-030-035-036-043>047-201600-
CENTRAL WISCONSIN

CITY           SKY/WX    TMP DP  RH WIND       PRES   REMARKS
WAUSAU         CLOUDY    69  62  78 S8        29.99R
MOSINEE        MOSUNNY   68  64  88 S8        30.02R
MARSHFIELD     CLOUDY    69  62  78 S9        30.00R
STEVENS POINT  CLOUDY    68  62  79 S10       30.02R
WAUPACA        PTSUNNY   72  66  80 S7        30.02R
WAUTOMA        CLOUDY    71  64  78 S5        30.03R
WISC RAPIDS    CLOUDY    72  63  73 SW8       30.02R
CAMP DOUGLAS   NOT AVBL
$$

WIZ011>013-019>022-031-037>040-048>050-201600-
NORTHEAST WISCONSIN

CITY           SKY/WX    TMP DP  RH WIND       PRES   REMARKS
ANTIGO         CLOUDY    69  62  79 SW7       30.02R
SHAWANO        CLOUDY    71  63  76 CALM      30.00R
OCONTO         CLOUDY    72  63  72 SW6       30.00R
STURGEON BAY   CLOUDY    74  64  71 SW7       30.02R
GREEN BAY      CLOUDY    73  69  87 S6        30.01R
MANITOWOC      NOT AVBL
APPLETON       PTSUNNY   73  61  64 S9        30.01R
CLINTONVILLE   CLOUDY    70  63  78 S5        30.01R
OSHKOSH        CLOUDY    73  63  70 S12       30.03R
$$

WIZ032>034-041-042-053>061-201600-
SOUTHWEST WISCONSIN

CITY           SKY/WX    TMP DP  RH WIND       PRES   REMARKS
LA CROSSE      CLOUDY    73  64  73 S10       29.98R
SPARTA         CLOUDY    68  63  83 CALM      29.99R
VIROQUA        CLOUDY    67  64  87 S6        30.02R
BOSCOBEL       CLOUDY    70  64  81 SW3       30.01R
PRAIRIE DU CHI CLOUDY    68  63  82 E3        30.01R
PLATTEVILLE    CLOUDY    69  67  93 S8        30.04R
$$

WIZ056-057-062-063-064-067-068-201600-
SOUTH CENTRAL WISCONSIN

CITY           SKY/WX    TMP DP  RH WIND       PRES   REMARKS
REEDSBURG      PTSUNNY   71  64  80 S8        30.02R
BARABOO/DELLS  PTSUNNY   72  61  68 S7        30.02S
LONE ROCK      NOT AVBL
MINERAL POINT  CLOUDY    70  64  83 S6        30.04R
MADISON        CLOUDY    72  63  73 S7        30.03R
MIDDLETON      CLOUDY    72  62  71 SW8       30.04R
WATERTOWN      CLOUDY    72  66  80 S7        30.04R
MONROE         CLOUDY    70  63  78 S7        30.04R
JANESVILLE     CLOUDY    75  61  60 S8        30.02S
$$

WIZ051-052-058>065-066-070>072-201600-
SOUTHEAST WISCONSIN

CITY           SKY/WX    TMP DP  RH WIND       PRES   REMARKS
MILWAUKEE      CLOUDY    78  62  57 SW10      30.04R HX  80
WAUKESHA       SUNNY     72  61  68 S7        30.06R
MILWAUKEE/TIMM SUNNY     75  59  57 S9        30.05R
RACINE         CLOUDY    77  63  61 S6        30.06S
KENOSHA        CLOUDY    76  64  66 S7        30.05S
FOND DU LAC    CLOUDY    74  61  63 S6        30.03R
SHEBOYGAN      CLOUDY    77  67  71 S10       30.04R
WEST BEND      CLOUDY    72  64  78 S5        30.05R
JUNEAU         MOSUNNY   72  62  72 S7        30.05R
$$

LSZ147-162-201600-
LAKE SUPERIOR

STATION/POSITION TIME  TEMP    WIND        PRES    WAVE
                       AIR SEA DIR/SP/G            HT/PER
                 (UTC) (F)     (DEG/KT/KT) (MB)    (FT/S)
W MID LAKE BUOY  1350   63 60  200/ 12/ 14 1010.7F   1/ 3
DEVILS ISLAND    1400   68     180/  7/  8 1010.5F
SAXON HARBOR     1440   74     200/  9/ 15 1011.2F
$$

LMZ867-665-643>646-201600-
LAKE MICHIGAN

STATION/POSITION TIME  TEMP    WIND        PRES    WAVE
                       AIR SEA DIR/SP/G            HT/PER
                 (UTC) (F)     (DEG/KT/KT) (MB)    (FT/S)
S GREEN BAY BUOY 1430   70 71  210/ 10/ 12 1015.8R
N MID LAKE BUOY  1350   68 67  190/  6/  8 1016.1R   1/ 4
NORTHPORT PIER   1440   70     140/  6/ 10 1015.6R
KEWAUNEE LAKESHO 1430   66     180/  4/  6 1015.3S
SHEBOYGAN LAKESH 1400   68     160/  7/  8 1016.0F
PORT WASHINGTON  1430   74     170/  5/  6 1017.9R
ATWATER BUOY     1309   70 70  150/  8/ 10 1016.7F
MILWAUKEE LAKESH 1430   74     200/  7/  7   N/A
S MID LAKE BUOY  1350   72 71  170/ 10/ 12 1017.0S   1/ 3
KENOSHA   LAKESH 1400   71     180/  7/ 10 1017.3
$$

TC  - TEMPERATURE IN CELSIUS
VSB - VISIBILITY IN STATUTE MILES
WCI - WIND CHILL INDEX
HX  - HEAT INDEX





USA.gov is the U.S. government's official web portal to all federal, state and local government web resources and services.